GFSWCAN_sfc_temp_105.txt.gz
Temp
47 47 47 47 47 47 47 47 47 47 47 47 48 47 48 49 49 46 42 44 38 33 36 39 40 36 36 35 31 35 33 34 34 30 30 31 29 33 32 34 31 31 29 29 31 27 25 39 41 37 36 38 39 38
45 46 46 46 47 47 47 47 47 47 47 47 47 47 48 48 49 48 40 43 43 36 36 41 41 43 42 42 37 37 35 34 35 31 32 33 31 31 31 29 37 30 33 31 33 32 37 38 37 39 42 38 37 37
45 45 46 45 46 46 47 47 47 46 47 47 47 47 48 48 49 48 41 42 40 35 35 36 37 43 45 43 46 35 36 41 38 40 35 33 29 33 29 32 33 37 37 33 33 35 35 35 37 38 39 36 37 37
45 45 45 46 46 46 46 46 46 46 46 46 47 47 47 48 48 48 41 43 40 36 29 34 43 40 45 45 43 44 43 42 41 40 35 31 29 37 33 35 34 34 35 31 31 33 35 34 34 34 35 36 35 34
45 45 45 45 45 46 46 46 46 46 46 46 47 47 48 48 49 47 43 44 45 38 31 33 38 42 44 42 40 41 40 39 37 34 32 31 36 35 37 37 31 33 28 28 27 31 32 31 32 33 30 31 32 32
44 45 44 44 45 45 46 46 46 46 46 46 46 47 47 48 48 41 33 42 45 44 35 28 38 38 40 40 38 37 38 37 37 35 32 35 37 36 31 30 31 33 32 32 30 33 32 32 32 31 29 30 30 29
44 44 45 43 45 45 45 46 45 45 46 46 47 47 47 47 44 37 36 42 46 44 34 29 30 37 40 38 37 37 39 39 38 36 35 35 37 39 32 29 30 31 31 31 32 34 30 31 29 31 31 31 30 29
44 44 44 44 44 45 45 45 45 45 46 46 46 46 47 47 45 39 43 46 46 39 37 28 28 33 42 35 34 40 36 37 37 37 37 35 38 35 29 28 28 29 31 29 30 34 32 33 32 31 32 31 29 27
44 44 44 44 44 45 45 45 45 45 46 46 46 47 44 40 35 39 46 47 45 39 30 30 26 25 39 36 37 36 37 30 38 34 35 36 31 27 26 27 26 26 25 26 29 31 31 28 28 27 28 28 27 26
44 44 43 44 44 44 45 45 45 45 45 46 43 38 31 35 46 45 37 34 35 36 36 30 34 28 35 33 33 34 35 33 30 33 35 31 24 25 26 26 26 26 26 28 28 25 26 27 26 25 24 25 25 24
44 43 43 44 44 44 45 44 43 44 44 40 32 32 39 46 40 35 30 31 31 29 33 34 33 31 37 31 32 35 31 33 28 31 31 26 22 23 25 24 25 26 25 24 25 25 26 25 25 25 23 22 22 21
43 44 44 44 44 44 42 42 42 41 41 38 40 42 40 36 33 30 28 30 29 27 30 31 33 37 36 36 32 32 31 31 27 32 27 20 20 24 24 23 23 24 23 22 22 21 21 22 22 22 21 19 18 17
43 44 44 44 42 42 42 44 45 45 44 43 37 33 33 28 27 23 21 26 26 28 31 33 32 34 35 35 32 32 29 28 32 23 17 18 22 24 24 23 22 22 21 20 19 19 17 15 15 16 13 13 13 12
42 42 42 42 42 43 44 46 46 42 37 31 29 21 25 20 19 20 24 28 29 31 33 34 31 33 33 31 29 27 28 31 22 18 14 19 20 21 22 22 19 15 15 14 12 13 12 11 10 11 10 11 10 10
40 41 42 43 44 44 42 42 41 37 32 26 27 17 14 19 21 22 26 29 29 31 33 31 30 31 26 26 23 25 22 15 16 14 15 20 20 20 19 18 16 13 11 10 11 10 9 10 10 10 10 11 11 10
42 42 42 44 44 44 44 42 38 35 30 25 21 19 21 19 19 23 24 26 28 29 32 31 25 22 19 19 18 12 17 14 12 15 19 20 17 16 15 15 13 12 11 11 11 11 10 9 10 10 10 9 8 8
42 39 44 44 45 44 44 36 33 29 25 21 17 18 15 14 16 20 22 23 28 28 23 25 20 17 22 15 12 13 11 12 14 17 18 18 16 14 13 14 13 13 13 13 13 13 12 13 13 13 11 12 12 11
38 41 46 46 43 41 36 33 29 26 19 19 14 15 15 15 16 19 22 25 27 25 24 19 24 14 10 12 11 12 15 17 18 17 17 18 18 17 17 15 13 15 14 14 14 14 13 13 13 13 13 13 13 13
40 41 44 45 42 34 30 30 31 20 20 20 21 22 20 19 22 22 23 25 26 27 23 19 12 11 11 12 11 11 15 17 17 17 17 16 15 14 14 14 15 15 15 15 16 16 16 16 16 16 16 15 13 14
43 43 44 44 42 32 29 28 32 25 19 20 22 20 20 19 21 20 21 23 23 21 15 12 12 13 16 16 18 19 17 19 18 15 15 15 15 15 16 18 18 17 18 18 18 17 18 17 18 18 17 17 15 13
42 40 41 38 33 32 30 28 25 26 24 21 23 24 19 22 19 17 18 22 16 13 12 14 13 15 17 13 15 18 17 20 18 19 17 16 16 19 18 19 20 20 19 18 18 17 17 17 18 17 16 13 12 13
37 42 35 36 32 31 28 28 26 27 25 24 24 24 17 14 13 15 19 14 12 13 14 15 14 16 15 16 16 16 15 17 17 17 15 17 17 17 17 18 19 17 17 17 18 16 16 16 15 14 12 10 11 12
39 36 31 31 25 24 22 30 23 26 19 22 23 18 14 13 17 21 10 14 14 14 15 15 13 15 15 16 17 17 17 17 16 16 16 15 16 16 17 17 18 16 15 16 18 17 15 13 10 11 11 11 11 9
34 24 19 17 21 17 19 17 26 23 20 17 16 11 12 13 16 10 7 9 13 18 16 14 16 15 17 16 14 14 14 16 15 14 15 16 15 14 16 16 16 16 16 16 14 13 12 11 7 10 8 7 6 7
22 16 16 9 16 13 9 7 10 15 6 8 10 8 9 15 7 4 8 9 13 13 14 16 17 16 13 10 12 13 15 17 16 13 13 16 13 13 12 12 11 12 13 13 10 9 6 7 8 8 6 7 8 6
10 10 12 8 10 13 12 7 4 5 6 3 5 8 8 6 4 4 10 9 9 11 10 12 12 13 13 15 13 14 14 16 16 13 11 13 13 12 11 10 10 10 9 8 8 8 6 4 6 7 7 6 4 7
6 5 15 20 19 17 9 9 14 8 2 3 5 0 4 2 1 7 10 12 14 13 16 16 18 17 15 12 12 11 12 13 13 12 10 10 10 10 11 10 9 10 8 7 6 8 8 6 4 3 4 2 3 5
9 11 7 4 5 10 1 -0 -1 1 2 11 8 -0 4 5 6 11 13 11 13 17 15 14 15 15 14 11 9 8 6 7 6 7 9 9 6 4 3 4 4 2 2 2 4 3 5 6 5 3 3 6 3 -2
4 8 9 -2 1 3 3 -0 3 9 11 7 0 1 4 10 8 10 11 13 15 15 11 8 3 5 4 3 1 5 7 8 7 1 1 3 3 7 1 1 2 2 2 7 6 4 3 2 2 3 3 4 1 -4
4 9 1 -6 -5 -1 1 4 5 4 8 8 10 11 10 8 8 9 12 12 12 11 8 8 4 7 4 5 2 2 -1 -2 2 6 4 3 4 4 1 2 3 0 0 4 5 4 3 2 2 0 1 0 1 1
7 3 -1 0 -2 1 4 1 -3 -4 -4 -1 -7 1 5 8 12 9 7 2 4 4 4 2 -1 2 3 2 3 2 2 0 -7 -4 -1 -1 -1 1 0 -2 -3 -3 0 1 1 1 -0 -2 -2 -1 0 -1 -3 -2
-3 -8 -2 -3 1 1 2 -4 -8 -5 -6 -1 -2 -7 -1 2 3 8 1 2 5 6 2 7 6 4 1 1 1 -0 -3 1 -4 -4 -3 -2 -0 -4 -4 -5 -7 -4 -2 -2 -2 -3 -4 -3 -3 -3 -2 -3 -5 -6
-10 -11 -9 -5 -2 -1 -2 1 0 -1 -5 -5 -3 -7 -5 1 2 6 4 2 8 10 7 8 5 4 3 2 2 -3 -3 -4 -7 -0 -7 -6 -9 -7 -6 -6 -5 -4 -3 -3 -4 -3 -3 -4 -5 -6 -7 -8 -8 -9

GFSWCAN_sfc_temp_108.txt.gz
Temp
47 48 47 47 47 48 48 48 48 48 48 48 48 48 48 48 49 46 42 46 40 35 43 46 47 43 44 42 37 43 40 40 40 34 35 36 34 40 38 39 34 36 34 34 36 31 29 42 47 38 38 42 42 41
46 46 47 46 47 47 47 47 48 48 47 47 47 48 48 48 49 48 41 44 44 36 41 46 49 52 50 49 42 43 40 39 42 36 39 39 35 39 37 34 42 32 37 32 35 34 38 39 37 42 45 44 43 42
46 45 45 46 46 46 47 47 47 47 47 47 47 47 48 48 49 48 43 42 39 34 37 39 43 51 54 51 53 39 43 46 44 47 39 39 32 34 33 37 37 41 39 34 34 34 34 35 37 39 43 43 44 44
46 46 46 45 45 45 46 46 47 47 47 46 47 47 47 48 48 48 42 43 41 38 34 43 51 47 54 53 50 50 49 50 48 43 41 38 35 45 39 41 39 37 39 32 32 33 33 33 34 35 37 40 41 40
45 45 46 45 45 45 45 46 46 46 47 46 47 47 47 48 48 48 45 43 44 39 37 43 49 52 53 51 49 49 47 44 42 36 36 35 43 39 42 41 36 37 30 30 30 32 32 31 33 36 34 35 38 39
45 45 45 45 45 45 45 45 46 46 46 46 46 47 47 48 48 42 34 43 46 44 37 35 49 46 47 49 47 46 46 42 40 38 38 40 41 36 33 35 33 34 33 33 31 33 32 32 32 33 32 30 34 36
45 45 45 45 45 45 45 45 46 46 46 46 46 47 47 47 45 38 41 48 46 45 36 33 39 45 46 46 42 39 42 41 41 39 39 40 42 41 37 32 31 32 32 33 34 34 31 32 29 32 32 31 32 34
45 44 45 45 45 44 45 45 45 46 46 46 46 46 47 47 45 40 45 48 46 40 40 32 36 39 45 38 37 43 37 39 41 41 39 36 40 41 32 32 32 33 33 32 34 34 32 32 31 31 35 36 34 33
44 44 44 44 44 44 44 45 45 46 46 46 46 46 44 41 36 40 47 47 48 43 33 32 32 32 45 39 41 37 38 32 45 37 41 38 37 31 29 31 30 30 30 30 33 34 32 29 30 31 33 34 32 30
44 44 44 44 44 44 44 45 45 46 46 46 42 37 32 37 46 45 38 35 35 36 38 33 43 35 41 35 35 36 38 34 30 36 43 37 29 28 30 31 32 31 32 34 31 30 30 28 29 30 29 30 30 28
44 44 44 44 44 44 44 45 45 45 44 38 33 33 43 46 42 36 32 32 34 31 36 38 40 38 44 34 34 36 32 37 30 36 34 33 28 26 29 28 30 30 31 30 30 30 30 29 29 29 27 27 27 26
44 44 44 44 44 44 45 45 45 41 37 39 40 43 41 37 34 32 31 34 31 33 37 34 35 39 40 40 37 35 33 34 29 37 33 29 24 27 29 28 28 28 28 27 27 25 25 26 27 27 26 24 22 21
43 44 44 44 44 45 45 45 44 42 42 40 38 33 33 32 29 28 25 28 30 36 36 35 33 40 37 38 34 33 30 30 37 31 28 24 26 27 28 28 27 27 26 25 23 23 21 19 19 19 17 18 18 16
44 44 44 45 44 45 44 42 42 41 37 32 32 26 30 28 32 34 36 36 36 37 37 39 34 36 37 33 32 28 31 33 28 25 21 24 25 25 26 26 25 20 19 19 18 17 16 15 14 15 15 16 16 15
43 44 44 44 43 42 41 42 43 37 34 29 33 26 26 28 29 30 32 34 33 35 36 35 36 38 31 29 29 29 27 24 24 23 23 24 24 24 23 22 20 18 16 16 17 16 15 15 15 15 16 17 16 15
42 41 39 41 42 42 40 38 36 36 33 30 27 25 27 29 27 29 31 30 32 33 37 39 31 29 26 28 26 21 25 24 21 23 24 25 22 21 20 19 18 18 18 18 18 17 16 16 16 16 16 15 15 15
40 38 43 43 43 41 41 39 36 29 28 26 24 27 27 29 27 25 30 30 33 33 31 35 28 24 30 26 21 25 23 22 23 24 26 25 22 19 19 18 17 18 18 18 18 18 17 18 18 18 16 16 17 16
39 41 43 44 44 41 40 41 36 30 23 25 24 23 25 26 27 27 29 30 33 34 34 27 33 23 24 22 22 21 22 24 25 25 24 23 22 21 21 20 19 20 19 19 18 18 18 18 19 19 18 18 19 18
41 42 43 44 43 41 36 35 37 25 24 26 26 27 27 25 27 28 29 31 34 36 33 30 25 25 23 24 23 23 23 24 22 22 22 23 22 20 20 19 20 20 20 20 21 23 23 21 22 23 22 23 21 21
44 44 44 44 46 40 33 32 39 30 25 26 28 26 26 25 27 27 28 29 30 30 25 23 23 23 25 24 27 26 26 27 25 22 21 22 23 21 22 24 24 23 23 22 23 22 24 24 25 25 24 23 22 20
45 44 43 45 41 39 35 32 29 30 29 25 28 29 25 28 25 25 25 28 24 21 21 23 22 22 24 26 29 29 27 29 27 28 25 22 24 26 25 25 25 26 26 25 25 23 23 23 24 24 23 20 20 20
42 43 42 43 37 36 33 36 32 33 30 28 28 29 25 23 22 22 26 22 20 20 23 23 24 24 24 24 25 28 25 26 26 26 25 25 25 25 25 26 26 24 25 25 25 23 23 25 24 23 20 19 20 19
41 42 38 38 31 31 28 36 30 31 25 25 28 23 21 22 23 27 19 22 21 23 25 24 21 25 23 23 24 24 25 27 27 26 26 26 26 26 26 25 26 24 23 24 25 24 22 18 18 20 19 19 19 17
38 30 27 27 30 24 29 28 32 29 28 25 23 18 19 21 23 22 17 21 22 23 23 21 24 22 23 24 25 24 24 27 25 25 26 26 24 23 25 24 25 25 25 25 24 22 21 19 16 19 18 17 17 16
30 21 25 21 27 25 23 23 23 24 19 21 19 18 18 22 18 18 18 18 21 22 22 24 26 27 25 23 23 22 23 27 25 23 23 26 23 22 22 22 22 22 23 22 20 20 18 18 18 17 16 17 15 14
18 18 22 22 23 24 24 20 21 20 20 18 18 20 21 19 16 18 20 21 22 22 22 23 24 24 24 26 23 23 23 26 26 23 21 24 24 24 21 20 19 19 21 21 21 19 17 16 16 15 15 13 11 14
18 18 22 25 26 25 22 23 23 23 19 18 18 16 18 17 19 19 20 25 23 25 27 28 28 27 25 23 23 23 23 23 22 22 20 20 20 21 22 20 17 19 19 18 19 19 18 16 15 15 15 15 15 15
19 20 18 17 17 20 16 18 18 17 18 20 21 16 17 20 18 20 24 24 27 27 27 27 28 27 25 23 22 20 18 16 15 17 18 17 17 17 15 16 15 10 15 14 17 16 18 17 16 14 14 15 13 13
16 19 19 9 13 14 13 14 15 17 18 20 18 14 14 16 17 19 20 24 26 24 21 18 17 19 18 18 18 19 18 18 16 12 13 14 14 14 16 16 16 16 17 16 12 14 12 14 14 15 12 15 14 12
15 19 14 10 9 11 12 14 15 15 17 18 19 18 17 17 17 18 20 22 23 23 22 20 18 18 15 16 13 12 15 16 17 18 16 15 16 16 14 14 14 14 16 16 15 12 10 12 10 11 11 11 12 11
16 18 14 14 12 14 15 13 14 14 16 16 15 17 15 17 18 18 20 20 20 18 17 15 15 18 16 15 16 13 12 13 10 9 13 14 14 14 13 13 14 14 15 14 13 13 12 12 12 10 10 9 6 8
15 11 13 11 12 14 15 16 16 17 17 18 15 14 14 17 15 16 14 16 17 17 17 17 15 14 18 18 16 15 10 14 10 9 9 12 13 12 11 10 9 12 12 11 11 10 7 7 10 9 9 6 5 4
11 12 12 13 13 12 14 16 15 14 16 15 14 14 15 16 13 17 14 16 19 20 17 19 20 16 13 13 13 11 11 10 9 9 8 8 7 9 10 10 11 10 9 10 10 9 7 3 6 4 4 3 2 2

GFSWCAN_sfc_temp_111.txt.gz
Temp
46 48 48 47 48 48 48 48 48 48 48 48 48 48 48 48 49 48 44 47 41 38 48 49 51 47 48 45 37 43 44 42 42 36 37 37 37 42 41 42 37 36 34 33 39 33 29 45 47 35 35 42 44 44
46 46 47 47 47 47 48 48 48 48 48 48 48 48 48 48 48 49 43 44 45 38 39 49 52 55 53 51 45 46 41 41 44 38 41 41 35 40 39 34 46 35 39 32 35 31 38 41 37 42 45 44 45 45
46 46 46 47 47 47 47 47 47 48 48 48 48 48 48 48 48 48 46 43 40 35 37 41 46 56 59 56 57 42 45 48 46 48 43 41 35 43 34 36 41 43 46 38 38 32 33 35 38 42 45 46 47 48
46 46 46 46 46 46 46 46 47 47 47 47 47 48 48 48 48 48 44 44 41 38 35 47 59 53 59 59 56 54 52 52 49 47 41 40 35 48 40 42 38 42 43 34 33 33 36 37 35 37 39 44 45 45
46 46 46 46 46 46 46 46 46 47 47 47 47 47 47 48 48 49 49 45 45 40 36 43 54 58 58 56 54 54 50 47 42 38 39 36 46 42 45 41 34 40 31 32 30 32 34 32 34 36 35 38 42 43
45 45 45 46 45 45 45 46 46 46 47 47 47 47 47 48 47 45 36 44 47 44 36 38 53 51 53 54 52 50 49 45 41 39 38 42 47 40 33 35 35 36 36 34 32 34 34 33 34 35 34 33 36 40
45 45 45 45 45 45 45 45 45 46 46 47 47 47 47 47 45 39 38 43 47 45 36 37 42 50 52 51 47 45 45 43 42 39 40 42 43 38 37 34 34 35 35 34 35 35 32 32 32 34 34 35 35 36
45 45 45 45 45 45 45 45 45 45 46 47 46 46 47 47 46 41 48 47 46 39 41 34 38 43 50 38 38 42 37 40 39 40 44 39 45 42 34 35 37 36 36 33 34 35 33 33 33 33 35 38 37 36
44 45 45 45 45 45 45 45 45 46 46 46 46 46 44 41 38 41 48 46 46 41 37 34 34 34 47 44 41 41 42 34 46 37 41 44 41 33 31 35 35 35 34 33 35 35 34 31 30 30 33 37 36 34
44 44 44 44 45 45 45 45 45 46 46 46 44 36 32 38 47 45 39 34 35 37 41 35 46 39 46 39 39 36 37 36 31 40 48 37 33 33 34 35 36 35 36 38 34 33 33 30 29 30 32 33 34 32
44 44 44 44 44 44 44 45 45 46 45 39 34 34 43 46 42 36 33 34 36 33 41 43 45 40 49 35 35 41 35 39 31 39 36 35 30 29 33 32 34 35 35 34 35 34 34 33 33 32 30 30 30 28
44 45 44 44 45 45 44 44 45 45 39 40 40 41 41 37 35 32 32 37 36 36 40 38 39 43 43 45 39 37 32 37 30 43 34 32 27 31 32 32 32 32 32 31 31 28 28 28 30 30 28 25 24 23
44 44 44 44 45 45 44 45 45 46 44 39 36 32 34 34 30 28 27 32 32 40 38 38 35 42 43 46 37 34 30 31 43 32 30 26 28 31 31 32 31 31 30 29 26 25 23 21 22 22 20 21 21 19
44 44 44 45 45 44 44 45 45 43 38 33 31 28 31 29 34 37 39 39 42 42 39 40 39 39 41 34 35 30 35 35 30 28 25 27 27 28 29 29 28 23 22 22 21 20 19 18 17 19 19 20 19 18
43 44 44 44 44 44 45 45 44 38 35 31 32 29 29 32 34 33 35 36 36 41 41 38 40 40 35 32 32 32 28 28 29 26 26 27 27 27 25 25 23 20 20 20 21 19 18 19 19 18 19 20 19 19
44 44 43 44 44 45 44 43 37 36 35 30 30 28 31 32 30 32 33 32 35 37 43 43 35 32 30 32 28 28 28 28 25 26 27 28 25 24 23 22 22 22 22 21 21 21 20 19 19 19 19 19 18 19
43 40 44 44 43 40 39 35 35 31 30 27 28 30 31 33 32 31 33 33 38 35 33 39 30 30 35 31 27 32 26 26 26 27 28 27 25 22 22 21 21 22 22 22 22 21 21 22 22 23 20 20 21 20
38 42 43 43 39 37 37 36 32 30 24 29 28 28 30 31 31 31 32 35 36 38 41 32 39 30 29 28 28 26 26 28 29 27 26 25 25 24 25 23 22 23 22 22 22 22 22 22 23 23 22 22 23 23
40 41 43 42 42 40 33 34 39 28 27 29 30 31 31 30 32 33 33 38 41 43 39 37 30 31 29 30 27 26 26 27 25 25 25 25 25 23 23 23 23 23 23 23 24 26 25 24 25 26 26 26 24 25
41 41 42 41 42 42 34 34 43 34 28 29 31 30 30 29 31 31 33 37 38 38 31 29 28 28 29 30 31 30 29 29 28 24 23 24 25 24 24 26 26 25 26 25 26 25 27 27 28 28 27 25 25 23
41 42 41 42 46 44 40 37 34 34 32 29 32 33 28 32 30 30 31 37 32 30 28 28 26 27 31 31 32 32 30 32 30 30 27 24 26 28 27 28 28 28 28 28 27 25 25 26 27 26 25 22 23 23
47 44 48 48 41 39 37 41 36 37 33 31 32 34 29 28 28 28 34 30 28 26 29 28 27 28 28 28 30 31 30 30 31 31 30 28 26 27 27 28 29 27 28 28 28 26 26 26 26 26 24 21 23 22
44 46 43 42 33 33 29 41 32 34 27 28 33 28 27 28 29 33 26 29 26 29 31 30 30 31 27 27 28 28 30 31 31 29 29 30 30 30 29 29 29 27 26 27 28 28 25 19 22 23 22 23 22 20
41 33 30 31 33 26 33 30 36 32 31 29 27 22 25 27 30 28 25 27 25 28 27 26 29 28 29 29 29 29 31 33 30 30 30 30 28 27 29 28 28 28 28 29 28 26 25 24 19 23 22 22 21 21
33 26 29 25 32 29 27 27 27 29 24 26 23 23 24 28 25 25 24 24 25 26 27 30 31 31 29 29 29 28 30 33 30 28 29 32 29 28 27 28 28 28 28 25 23 24 23 23 22 22 21 20 19 17
24 24 26 27 28 28 29 25 25 25 26 24 24 27 27 26 22 24 28 26 26 26 26 28 29 30 30 31 29 28 28 33 32 28 28 30 30 28 26 24 23 23 26 25 24 23 22 21 21 18 19 17 14 17
23 23 28 32 32 31 28 29 31 29 25 23 25 23 23 21 24 25 30 31 30 31 32 33 34 33 31 31 32 30 30 30 29 28 27 27 27 27 27 25 23 23 25 23 23 22 22 20 19 19 19 21 20 18
25 26 21 23 25 28 23 26 25 24 25 30 28 22 23 26 25 26 31 33 33 33 33 34 35 35 32 30 29 26 25 23 22 23 23 23 24 23 22 22 20 17 21 19 22 21 21 21 20 19 18 18 18 18
23 26 26 15 20 22 21 21 23 24 24 28 26 23 21 22 23 25 28 31 32 31 28 28 28 29 27 27 27 27 25 24 21 17 17 19 18 18 21 21 20 21 22 19 15 18 17 19 19 19 17 19 19 18
20 26 22 17 16 18 19 21 21 21 25 24 26 23 23 21 21 24 27 28 27 26 26 26 25 24 22 21 21 21 25 25 25 23 20 20 21 21 19 19 18 19 21 21 19 16 13 16 15 16 15 15 16 15
24 25 21 21 18 20 20 21 21 22 24 23 24 25 21 20 21 25 26 28 29 28 26 23 23 25 23 21 20 17 17 19 19 19 21 21 20 19 19 19 20 20 20 19 18 18 16 15 16 15 14 14 13 11
23 19 20 17 18 19 22 22 23 23 23 23 21 22 20 22 19 20 23 25 24 24 24 25 23 23 25 25 25 21 21 21 17 16 17 19 19 19 17 17 16 18 18 16 16 16 13 13 14 14 14 12 12 12
21 21 21 20 18 18 21 21 21 19 22 21 21 23 23 24 18 19 21 23 24 26 25 25 25 24 22 20 19 18 18 18 16 17 17 16 15 15 16 16 16 16 14 15 15 14 11 9 11 10 9 8 9 9

GFSWCAN_sfc_temp_114.txt.gz
Temp
47 47 48 47 47 48 49 49 49 49 49 49 48 49 49 48 49 48 47 50 44 36 44 49 51 45 46 45 36 43 43 41 42 35 37 36 35 39 38 42 38 33 31 29 32 32 27 39 45 34 35 39 39 40
47 48 48 47 47 47 48 48 48 48 48 48 48 48 48 48 48 49 44 49 47 37 40 46 49 52 51 51 46 46 42 42 45 37 38 39 35 39 38 32 42 32 38 33 32 30 35 37 36 39 42 42 44 44
46 46 47 47 47 47 47 47 48 48 48 48 48 48 48 48 48 48 46 45 40 36 38 43 48 57 57 56 57 42 46 49 46 46 39 39 35 41 33 35 38 42 46 36 36 33 35 35 37 37 39 40 45 46
46 46 46 47 47 47 47 47 47 47 48 48 47 48 48 48 48 48 46 47 41 38 34 46 61 54 61 59 56 55 51 52 49 47 39 38 36 46 38 42 39 41 42 34 32 35 37 34 35 35 37 40 42 44
45 45 46 46 46 47 47 47 47 47 47 47 47 48 48 48 48 49 49 46 49 40 34 41 51 58 59 57 55 54 49 46 44 39 38 35 44 42 44 45 32 38 31 31 28 31 33 31 34 35 33 33 39 41
46 46 46 46 46 46 46 46 46 47 47 47 47 47 47 48 47 46 38 49 50 47 36 35 52 52 55 55 53 51 49 46 43 41 39 42 48 42 35 35 35 36 36 35 31 34 34 33 34 34 33 32 35 37
45 45 46 46 46 46 46 45 46 46 47 47 47 47 47 47 47 39 39 42 47 46 36 35 42 51 54 51 48 48 48 46 44 40 38 41 43 42 37 34 34 35 36 34 35 35 32 33 31 34 35 35 37 37
45 45 45 45 45 45 46 46 46 46 47 47 47 47 47 47 46 40 48 46 46 40 39 34 38 42 51 42 38 45 41 42 40 41 44 40 44 41 33 36 38 38 37 35 34 35 33 33 33 32 34 35 35 35
45 45 45 45 45 45 45 46 46 46 46 46 47 47 46 43 38 45 48 47 48 39 34 35 33 34 48 42 40 39 42 33 45 37 40 42 38 32 32 36 36 36 35 36 37 37 35 31 30 30 30 30 31 33
44 44 44 44 45 45 45 45 45 46 46 47 45 39 31 38 47 48 40 34 34 33 38 35 45 38 45 41 37 37 39 36 32 38 46 36 29 32 34 35 36 36 37 38 33 31 34 32 31 28 28 30 31 29
44 44 45 45 45 45 45 45 45 46 46 41 34 33 44 47 43 37 32 32 34 32 40 42 44 40 49 36 34 38 33 38 31 38 37 35 28 28 33 32 34 35 35 34 34 33 33 33 31 31 29 28 26 25
45 45 45 45 45 45 44 45 45 45 43 39 40 42 41 37 34 31 31 37 35 35 42 39 42 46 44 46 38 37 33 36 30 42 35 30 26 31 32 32 32 32 32 30 29 27 26 26 28 27 26 23 22 22
45 44 45 45 45 45 44 45 45 47 44 40 38 32 31 33 28 27 27 31 33 41 40 40 35 42 43 45 37 34 29 30 40 32 28 25 29 31 32 32 30 30 29 28 25 24 22 20 20 21 19 20 20 19
44 45 45 45 45 45 44 44 45 45 39 32 31 27 29 28 33 36 38 38 42 42 41 39 38 38 40 35 35 29 35 35 29 28 23 26 27 29 30 30 26 22 22 21 20 20 19 18 18 19 19 20 19 17
44 44 45 45 45 45 44 44 45 42 37 30 31 27 30 34 34 34 36 38 42 44 41 38 40 41 35 32 34 33 30 28 28 24 25 26 27 27 26 25 23 21 20 20 20 19 19 19 19 18 19 20 19 18
44 44 44 45 45 44 43 41 39 37 35 32 31 29 32 33 31 33 33 33 41 41 41 42 36 32 31 33 30 29 29 26 24 26 27 27 25 24 23 23 22 22 22 21 21 21 20 19 19 19 19 19 18 18
43 43 45 45 44 42 41 37 36 34 34 30 29 32 31 32 33 32 34 34 39 37 34 38 31 31 37 31 29 31 26 25 26 27 28 27 24 22 22 22 22 22 22 22 22 21 21 22 22 22 20 20 20 19
42 45 44 44 41 38 37 37 36 33 28 31 29 31 32 32 32 32 33 35 35 38 39 35 40 32 30 29 28 27 27 28 28 27 25 24 24 23 24 22 23 23 22 22 22 22 22 22 23 23 22 23 20 21
43 44 42 41 43 40 35 34 37 28 29 31 31 33 33 32 34 35 35 37 41 44 41 38 32 32 30 31 28 27 27 27 24 24 24 25 25 23 23 23 23 23 23 23 24 25 25 24 25 26 26 26 24 24
43 43 42 43 44 37 32 32 41 33 27 30 33 31 32 31 32 32 35 38 39 38 33 31 29 29 30 31 32 30 29 29 26 23 22 23 24 24 24 25 26 26 26 26 26 25 26 26 28 27 25 24 23 21
41 41 42 41 37 38 34 35 35 34 32 30 33 33 30 32 31 31 32 38 33 32 29 29 28 29 32 33 33 32 31 31 29 28 25 23 26 27 28 28 28 28 27 27 26 25 25 25 26 26 24 22 22 21
37 41 35 36 35 36 33 40 36 37 33 32 32 34 29 28 29 30 35 31 30 29 31 29 29 30 29 29 31 32 32 33 32 31 29 28 26 26 26 28 28 27 27 27 27 25 25 25 25 25 23 21 21 20
39 38 37 39 33 33 29 41 32 33 27 29 32 29 28 29 32 36 29 31 28 31 33 31 31 32 29 29 30 30 31 32 31 30 29 30 30 30 29 29 29 27 26 26 28 26 23 18 20 23 22 22 22 19
42 35 32 33 34 27 33 31 36 33 32 29 29 26 28 29 32 29 28 29 27 30 29 28 30 28 29 29 28 29 32 34 31 31 31 30 28 28 29 29 29 28 28 28 27 25 24 21 17 23 22 21 20 19
34 28 30 27 33 30 28 29 29 30 26 29 26 26 26 30 26 27 27 26 26 27 27 30 31 31 28 30 30 30 33 33 30 28 31 32 30 28 28 28 28 28 28 25 23 23 22 22 22 21 21 20 19 18
26 26 28 30 29 30 30 26 27 27 28 27 27 30 29 28 25 25 31 28 26 28 27 29 30 30 31 32 29 28 31 35 33 29 30 32 30 27 26 24 23 23 27 26 24 23 22 21 20 19 19 17 10 15
25 25 30 34 35 34 29 32 35 31 27 25 27 25 25 22 24 28 31 31 30 31 34 35 35 34 32 32 32 32 33 33 31 30 30 30 29 28 27 25 24 22 25 24 23 22 22 20 19 19 19 20 19 18
27 28 23 26 28 31 27 29 28 27 29 33 30 24 24 27 26 29 31 34 33 34 34 35 37 37 35 32 30 29 26 25 24 25 25 24 25 24 23 21 19 19 20 18 21 21 21 21 20 19 19 18 17 18
26 28 27 17 24 25 24 25 26 26 27 30 29 26 23 23 26 28 30 33 34 33 31 31 31 31 29 29 28 27 24 24 20 16 16 17 16 18 21 20 19 21 20 17 15 18 18 18 17 17 19 18 18 18
23 29 25 20 20 21 21 23 22 24 27 26 28 25 23 22 24 28 29 31 30 29 30 29 27 26 24 24 22 23 26 26 25 22 20 20 21 20 20 20 19 20 21 20 18 15 13 15 15 16 15 15 16 15
28 28 25 25 21 21 21 22 24 24 26 25 27 25 20 20 23 25 25 29 29 28 27 24 24 26 24 24 22 21 20 23 20 22 23 22 20 20 20 20 20 20 20 19 18 17 15 15 16 16 15 14 13 11
26 24 23 20 19 21 24 24 24 24 23 24 22 23 21 22 18 22 24 26 28 26 26 25 24 24 27 27 26 25 23 21 19 19 20 20 20 20 19 19 19 19 18 17 17 16 14 14 15 15 15 14 13 12
24 24 24 23 20 21 22 23 24 22 24 23 22 24 23 23 16 18 23 24 23 26 26 26 26 25 23 22 22 20 20 20 19 20 20 20 18 18 17 17 17 17 16 15 15 15 13 12 12 12 11 9 9 9

GFSWCAN_sfc_temp_117.txt.gz
Temp
48 48 47 48 49 49 49 49 49 49 49 49 49 49 49 49 49 44 41 46 38 34 36 42 44 37 37 36 29 35 32 33 31 26 29 27 27 32 32 34 32 29 25 21 27 25 22 36 38 30 34 38 39 38
47 47 47 46 47 48 48 49 49 49 48 48 48 48 49 48 49 47 40 46 44 36 36 40 41 44 42 42 37 37 35 36 36 27 28 29 26 29 30 28 39 29 33 28 28 27 34 35 34 36 38 37 39 41
47 46 46 46 47 47 47 48 48 48 48 48 48 48 48 49 49 46 40 42 40 35 35 34 37 47 50 48 47 34 37 43 39 40 32 31 26 27 27 28 34 38 40 30 31 32 33 33 35 36 36 36 40 41
46 47 47 47 47 46 46 47 47 48 48 48 48 48 48 48 49 47 39 42 40 37 31 36 54 47 54 51 48 46 43 45 42 38 32 29 28 38 29 34 33 34 34 27 30 32 32 32 33 34 35 36 38 40
45 46 46 47 47 47 46 47 47 47 47 48 48 48 48 48 48 44 41 42 42 38 32 31 42 48 51 50 48 47 43 41 38 29 30 26 34 32 34 34 30 34 29 28 26 31 31 30 33 34 32 33 35 36
45 45 46 46 46 46 47 47 47 47 47 47 47 48 48 48 48 39 35 41 43 44 35 28 41 46 50 49 48 45 41 38 35 32 26 31 40 32 29 24 32 35 35 34 31 33 33 32 33 34 32 32 34 35
45 46 46 45 46 46 46 46 46 46 47 47 47 47 47 47 40 34 35 40 45 45 35 30 30 44 48 45 40 39 41 38 36 34 30 32 34 36 28 23 32 34 35 34 34 34 30 31 29 33 34 35 35 35
45 45 45 45 46 46 45 46 46 46 47 47 47 47 47 47 44 36 44 46 45 40 38 29 28 34 45 36 32 38 37 39 34 32 34 32 35 35 27 33 36 36 36 34 33 33 31 32 31 31 32 33 31 29
44 44 45 45 45 45 45 45 46 46 47 47 47 47 41 36 32 36 49 47 44 38 32 31 27 21 43 36 36 36 37 29 35 30 31 33 26 24 30 32 33 34 33 34 35 35 33 30 29 28 28 28 27 25
45 45 44 45 45 45 45 45 46 46 46 46 41 32 27 33 48 46 40 35 34 36 36 31 34 27 36 31 32 31 34 31 24 29 35 27 23 29 30 32 33 32 32 32 29 27 29 28 27 27 26 27 25 24
45 45 45 45 44 45 45 45 45 45 46 37 32 31 37 47 38 36 30 29 31 30 31 32 34 29 39 29 26 31 32 31 25 29 31 28 24 26 29 29 30 30 28 27 25 24 24 26 25 25 23 23 23 23
45 45 45 45 45 45 45 45 45 40 36 37 37 41 39 35 32 28 28 28 28 27 29 29 31 36 35 36 32 33 29 30 24 33 28 21 23 27 27 27 27 26 25 23 23 21 21 22 22 22 21 20 20 21
45 45 45 45 45 45 45 45 45 45 43 39 35 32 30 31 24 23 20 24 22 29 31 30 26 32 34 36 27 30 29 27 29 25 22 21 25 27 26 25 23 24 24 22 21 20 19 17 17 17 14 13 14 11
45 44 45 45 45 45 44 45 45 43 38 29 27 19 25 26 27 25 25 28 31 32 33 32 29 29 29 30 32 28 28 31 24 19 18 22 23 24 24 24 21 18 18 17 15 14 13 14 13 11 9 9 7 7
44 44 45 45 45 45 44 45 44 41 30 28 29 19 26 32 32 32 33 32 32 34 34 30 30 32 29 28 31 28 25 19 23 17 18 21 22 22 20 20 18 16 14 13 12 12 11 12 13 12 12 10 10 9
44 44 42 45 45 45 45 43 39 37 34 30 29 25 30 30 29 32 32 32 34 30 31 30 27 30 23 31 27 21 23 19 21 20 21 21 19 18 18 18 18 16 15 13 12 14 13 10 9 8 8 8 5 5
43 37 44 45 45 44 41 37 35 30 27 28 26 29 29 29 30 31 32 32 35 31 29 32 25 29 29 23 25 26 20 16 21 22 22 20 18 15 15 16 16 18 16 16 14 13 11 13 14 17 12 9 10 9
37 41 45 45 42 37 36 36 31 31 27 27 21 27 29 30 30 31 32 33 33 33 31 29 29 26 22 24 21 22 20 23 22 21 20 18 17 15 16 12 13 14 13 11 12 10 12 13 15 10 12 13 15 15
40 41 45 43 39 36 32 31 32 26 26 26 27 29 29 29 27 28 32 33 34 36 33 28 23 26 24 23 23 23 22 20 19 19 19 17 18 16 15 17 14 11 11 11 14 18 13 13 14 17 19 20 15 14
44 44 43 42 43 35 31 30 35 29 24 24 27 26 28 28 28 29 31 32 32 32 29 24 25 25 21 20 23 24 23 23 21 18 16 15 19 15 13 15 16 13 15 14 14 16 18 18 20 18 16 17 16 15
41 40 43 41 36 35 33 31 30 30 28 25 28 29 26 26 25 28 26 32 29 25 22 23 26 27 23 25 27 26 24 24 20 19 17 16 14 17 19 21 18 17 18 18 18 11 15 14 16 18 14 8 8 8
38 40 36 36 33 33 31 33 31 31 28 27 29 29 26 25 26 26 28 25 23 20 21 20 25 24 23 22 23 24 23 26 25 23 20 20 20 17 17 16 17 17 18 13 19 17 16 16 14 14 7 4 11 6
40 39 34 33 29 29 27 35 29 30 21 26 29 25 22 23 25 29 22 25 19 21 23 25 26 25 23 20 24 23 24 26 23 22 22 20 20 21 19 17 21 18 16 15 20 17 12 11 9 7 6 7 11 4
40 32 31 30 30 25 29 28 31 29 27 25 25 21 25 25 26 21 23 20 17 25 24 24 26 23 24 25 20 19 21 26 24 21 24 24 21 20 21 20 20 19 22 20 18 16 13 5 5 8 5 2 2 2
27 25 27 26 29 26 25 24 25 26 22 23 20 18 20 22 15 18 24 19 22 24 25 26 25 25 22 18 20 19 26 27 24 22 21 23 19 20 19 20 19 19 19 12 8 8 5 4 4 6 6 1 9 3
25 25 24 27 27 27 26 23 21 23 23 17 17 21 20 16 15 14 21 21 22 24 24 24 23 23 24 26 24 22 24 25 26 21 20 25 23 19 16 15 13 12 16 13 13 10 9 5 3 5 1 1 1 -1
22 20 26 31 29 30 23 26 29 21 15 14 17 15 14 9 11 16 21 21 22 23 28 28 29 27 26 26 26 23 22 25 25 23 22 22 21 19 17 16 13 14 16 12 9 8 12 9 3 2 1 3 7 0
25 27 16 21 21 25 20 18 17 16 18 24 22 13 11 11 14 20 23 22 25 29 28 26 27 28 28 26 23 20 19 20 20 20 19 18 17 15 12 11 14 15 9 6 5 7 7 7 5 2 0 2 4 -1
23 25 20 9 14 17 15 16 17 18 21 20 15 13 12 18 19 18 24 23 25 27 25 24 24 25 24 22 21 20 20 18 14 9 6 6 5 8 10 9 10 10 8 8 14 9 9 6 3 2 2 1 1 -2
17 24 16 11 9 12 13 16 15 15 19 18 20 18 16 13 17 22 25 25 22 26 26 24 22 22 20 19 17 13 13 14 13 13 13 11 12 15 14 13 11 13 11 8 4 3 11 3 6 1 1 -1 -2 -4
24 25 18 18 14 14 13 14 14 16 16 17 18 14 10 12 17 22 20 23 26 25 23 21 20 18 19 18 17 16 17 15 13 16 16 17 17 16 16 15 14 12 14 13 8 5 1 0 0 4 4 -0 -3 -2
18 16 13 12 11 13 15 19 20 20 13 15 11 11 11 10 8 16 19 19 23 20 19 19 18 17 18 20 19 17 17 15 13 15 14 17 16 16 16 15 16 14 13 11 8 7 5 3 3 1 -0 -1 -4 -5
16 16 16 13 10 13 13 16 17 13 19 17 17 18 17 13 6 12 18 16 17 20 20 18 22 21 19 17 16 16 15 14 13 18 17 16 14 14 12 12 13 13 12 11 9 7 5 5 3 2 -1 -2 -3 -5

GFSWCAN_sfc_temp_120.txt.gz
Temp
48 47 48 48 48 48 49 49 49 49 49 48 48 48 48 49 49 43 40 41 36 29 34 39 41 34 35 34 28 33 30 32 29 25 26 25 25 30 30 32 30 27 24 25 25 23 20 34 35 29 32 35 37 38
47 47 47 47 47 48 48 48 48 48 48 48 48 48 48 48 49 45 38 43 42 34 32 39 40 43 41 41 35 34 33 33 34 25 25 27 25 27 29 22 37 28 31 27 29 27 33 34 33 35 36 34 34 35
48 47 47 47 47 48 48 48 48 48 48 48 48 48 48 48 48 44 39 42 38 35 33 33 38 45 45 43 44 32 33 39 37 37 30 28 25 25 22 25 29 36 36 29 30 31 31 32 34 35 35 35 37 35
46 47 46 45 46 48 48 48 48 47 48 48 48 48 48 48 48 45 38 42 39 37 29 33 47 44 49 46 43 43 41 45 42 36 31 26 26 35 28 32 29 32 31 29 29 31 32 32 33 33 34 35 37 37
46 46 45 46 46 46 47 47 47 47 47 48 48 48 48 48 48 41 38 40 42 36 28 30 38 45 47 46 44 43 41 37 32 27 24 25 30 30 31 32 26 33 29 24 19 25 30 30 32 33 30 33 34 33
45 46 46 46 45 45 45 47 47 47 47 47 47 48 48 48 46 37 30 38 41 43 33 27 36 41 45 46 45 43 39 39 33 30 25 27 36 30 21 28 32 34 34 34 30 32 30 31 32 34 31 32 33 32
45 46 46 46 46 46 45 46 47 47 47 47 47 47 47 47 38 34 32 40 45 44 34 29 28 40 45 42 38 36 42 39 36 32 29 30 31 33 24 24 31 33 34 34 33 33 28 30 28 32 32 34 33 31
45 46 45 46 46 46 46 46 47 47 47 47 47 47 47 47 43 36 43 45 45 39 37 29 26 34 42 33 31 34 34 38 36 31 30 29 32 31 23 30 34 34 35 33 32 32 30 30 30 29 31 31 28 26
45 45 44 44 45 46 46 46 46 47 47 47 47 46 38 34 30 34 47 47 43 38 31 30 25 25 39 33 32 33 33 25 32 27 29 30 24 17 27 29 30 31 30 32 33 32 29 27 25 26 26 26 24 24
44 44 44 44 44 45 45 45 46 46 47 46 38 29 19 29 44 43 40 34 35 36 35 30 31 25 34 24 31 29 33 30 24 27 32 25 22 26 27 29 29 28 28 31 26 24 25 25 24 23 23 24 24 23
45 45 45 45 45 45 45 45 46 46 45 35 24 30 34 45 36 34 29 29 31 29 32 33 30 27 35 26 23 28 30 30 25 27 27 27 22 24 26 26 27 26 25 24 24 23 24 25 23 22 21 22 22 22
45 45 45 44 45 45 45 45 45 39 34 34 35 39 36 32 30 27 26 30 29 25 25 26 28 32 32 32 28 32 30 30 25 32 29 20 21 24 25 23 23 22 21 20 21 20 21 22 22 21 20 19 19 19
45 45 45 45 45 45 45 45 44 44 42 37 35 31 30 24 22 22 20 25 19 26 26 27 25 32 35 33 30 22 28 27 27 21 17 20 23 23 22 22 21 22 22 21 20 20 19 17 16 16 12 9 11 10
44 45 45 45 45 45 44 45 45 42 33 26 27 18 24 22 21 23 23 24 28 26 29 28 25 29 26 27 20 18 25 31 25 17 16 19 21 21 22 22 20 16 15 14 12 12 12 12 10 9 6 5 7 10
44 44 45 44 45 45 45 45 44 38 28 24 28 18 16 28 30 30 32 33 33 28 31 28 28 29 24 29 30 30 26 24 21 15 13 18 20 20 19 19 16 14 10 10 7 8 5 6 8 4 3 4 5 2
44 43 40 45 45 45 44 43 37 36 29 28 28 20 23 27 28 31 32 32 34 28 27 29 27 28 27 29 27 25 23 17 15 16 18 20 17 17 16 17 14 13 12 10 10 10 8 5 6 5 4 4 -0 0
43 36 44 44 44 43 41 36 33 28 25 26 20 21 22 27 28 30 32 32 34 30 22 32 24 28 29 26 23 27 22 12 19 20 19 18 17 14 14 14 12 12 11 11 8 9 7 8 8 12 8 5 7 7
33 39 44 45 41 38 35 34 29 27 26 22 19 22 27 29 29 28 31 32 33 30 29 29 29 26 23 24 17 17 21 20 17 18 16 15 15 13 16 12 12 13 12 9 9 7 7 8 11 8 9 9 10 10
36 40 44 42 39 35 31 31 32 22 21 22 21 25 28 27 28 27 27 31 33 33 32 27 20 20 17 15 12 12 18 15 17 11 7 8 12 13 12 12 11 7 10 8 10 11 11 12 14 12 13 17 11 14
44 43 41 43 41 34 30 27 32 28 23 23 25 25 26 21 21 20 29 30 32 32 29 24 18 20 18 15 16 21 19 20 19 16 14 9 8 12 12 15 13 11 12 11 11 12 13 14 15 16 14 16 12 9
40 39 42 39 36 35 30 28 28 29 27 24 28 28 22 23 24 28 26 30 29 23 17 14 22 16 13 17 24 23 21 22 19 18 17 15 12 17 13 13 14 13 13 11 11 9 17 14 14 16 8 2 2 4
35 41 36 36 31 32 30 32 29 29 27 27 26 27 21 18 23 27 26 22 20 18 18 18 21 17 21 19 21 23 22 22 20 20 17 18 14 15 16 13 15 14 17 16 17 13 13 15 14 12 7 2 3 3
40 38 33 32 27 26 25 32 26 27 19 22 26 23 18 19 22 28 16 23 17 17 18 19 18 19 20 13 21 21 22 23 20 19 19 19 18 17 19 16 18 18 17 13 19 15 12 10 9 5 2 3 1 -3
39 32 28 27 28 24 27 24 29 28 26 23 23 17 23 21 27 18 17 16 15 18 21 20 24 22 22 24 22 22 23 24 21 21 22 20 19 19 19 19 21 20 20 19 18 13 10 5 3 4 -3 -3 -1 -0
27 26 26 25 28 24 21 22 21 22 13 16 19 14 20 21 11 10 15 14 23 22 23 24 24 25 23 17 19 20 23 25 22 20 20 24 18 19 19 18 17 19 19 14 8 8 3 -3 -2 1 -1 -4 3 -3
22 23 21 25 24 23 21 15 14 14 19 17 13 17 14 11 12 12 18 11 20 25 25 24 23 21 22 25 23 21 23 26 25 22 21 24 23 20 17 15 13 12 14 16 10 6 7 1 -0 3 -0 -0 -1 -5
17 21 26 30 27 29 20 21 25 17 10 9 13 9 9 7 7 13 18 17 17 17 27 26 27 25 24 23 22 21 24 25 23 22 20 20 20 21 21 17 14 17 14 14 12 10 9 7 3 3 1 -5 -2 -2
23 25 20 21 20 23 16 15 13 14 12 20 16 10 9 8 10 16 20 19 17 24 25 25 26 25 24 21 19 18 18 18 17 17 16 15 13 10 9 12 14 17 12 11 9 8 11 7 5 2 -1 3 -1 -7
21 24 21 13 14 16 12 13 12 15 18 16 9 6 8 15 14 16 17 20 22 25 23 21 20 20 18 17 14 18 19 19 16 11 9 4 4 8 7 9 11 11 12 12 13 10 10 8 7 5 6 6 3 -5
18 23 14 7 7 9 8 10 9 7 14 14 16 15 13 13 17 21 20 21 22 23 20 21 21 20 18 17 14 11 8 7 14 18 15 10 11 10 9 9 10 8 9 12 11 11 14 8 8 4 4 2 0 -0
20 20 12 8 6 6 5 3 4 7 7 10 7 5 6 8 16 18 15 16 22 22 21 18 16 14 17 16 16 13 10 9 9 11 11 12 14 13 13 12 13 12 10 8 9 7 5 4 4 3 3 0 -2 -0
11 8 7 4 3 5 4 8 9 5 3 3 2 -1 3 4 5 10 13 14 14 15 18 16 18 14 14 15 13 10 12 12 10 11 13 14 15 15 14 13 12 14 13 9 9 10 7 8 5 5 6 6 5 3
6 2 0 1 2 5 5 7 11 10 12 7 7 7 6 -0 -1 2 10 13 13 12 14 16 15 12 12 10 9 6 7 8 10 16 14 14 13 14 13 12 11 11 11 9 8 9 8 8 5 5 5 3 2 0

GFSWCAN_sfc_temp_123.txt.gz
Temp
48 49 49 49 48 49 49 49 49 49 49 48 48 48 48 49 49 43 39 41 36 29 34 37 39 35 34 32 27 32 29 30 28 23 25 24 24 29 29 31 27 28 26 24 25 22 17 33 34 27 31 33 33 33
48 49 49 48 48 48 48 48 49 48 48 48 48 48 48 49 49 45 39 42 40 33 34 37 39 41 40 40 33 32 32 32 31 24 23 26 24 25 28 21 34 21 31 28 28 25 32 33 33 34 35 33 33 32
47 47 47 48 48 48 48 48 48 48 48 48 48 48 48 49 48 45 39 39 36 30 31 33 36 42 42 41 42 31 32 37 35 34 29 27 25 24 22 25 28 32 33 28 29 31 31 32 35 35 34 33 34 34
47 47 47 47 47 48 48 48 47 47 48 48 48 48 48 48 48 45 38 38 36 37 24 33 45 40 45 42 41 41 40 44 40 33 30 25 26 32 27 30 28 32 31 29 29 31 31 32 33 32 34 33 34 33
47 46 47 46 46 47 48 47 47 47 47 48 48 48 48 48 46 41 39 38 39 33 26 29 37 43 45 42 41 41 39 36 31 26 23 24 29 28 30 30 29 32 28 23 15 29 30 29 32 32 28 33 31 31
46 46 46 46 46 47 47 47 47 47 47 47 48 48 48 47 44 36 28 37 40 43 29 25 35 38 42 42 42 41 38 38 35 30 24 26 33 29 19 29 31 34 34 33 30 32 30 29 31 33 32 31 31 30
46 45 45 46 46 46 47 47 47 47 47 47 47 47 47 45 38 33 31 40 43 42 34 24 27 39 44 43 37 39 42 38 37 34 29 29 30 32 23 26 28 32 34 33 33 33 27 30 27 30 32 31 30 29
45 46 45 44 45 45 45 46 47 47 47 47 47 47 47 46 43 36 42 45 43 39 37 22 25 35 44 34 32 33 35 38 36 34 31 28 31 29 21 31 33 34 34 33 31 29 27 27 26 27 30 29 26 25
45 45 45 45 45 45 45 46 46 47 47 47 47 45 39 35 31 37 47 45 42 38 29 29 22 21 40 34 31 31 31 28 31 26 28 29 22 20 23 29 30 30 31 31 31 29 27 25 23 24 25 25 24 23
44 44 44 45 45 45 45 46 46 46 47 46 39 31 23 32 43 44 40 34 35 35 34 29 29 28 34 28 30 28 33 27 23 28 31 24 19 26 26 25 26 26 26 30 25 23 26 23 23 22 22 23 23 22
44 44 43 44 45 45 45 46 46 46 43 33 26 24 34 43 36 33 27 28 30 28 32 33 29 25 33 25 24 26 29 30 24 26 26 23 20 23 25 24 25 25 24 23 24 24 25 25 23 22 21 22 22 21
45 45 43 42 45 46 45 46 45 37 33 34 34 37 36 32 30 28 24 29 27 25 27 28 29 29 30 30 26 32 30 29 25 32 28 19 18 23 23 22 22 22 21 20 22 21 22 22 22 21 19 18 18 17
45 45 44 43 43 45 45 45 45 44 41 35 32 30 29 24 19 20 18 24 23 24 24 25 23 29 30 30 28 28 26 26 26 23 18 15 21 22 22 22 21 22 21 20 19 19 18 15 14 14 10 8 7 7
44 45 44 45 45 43 44 45 45 40 32 23 21 14 18 20 22 19 22 22 25 23 25 26 24 27 29 26 19 16 22 30 23 21 16 16 19 20 21 22 19 16 14 13 11 10 10 9 3 0 -1 -2 2 2
44 45 44 44 44 45 43 45 43 35 27 25 28 16 14 21 27 28 25 28 33 28 26 26 27 29 27 28 30 25 25 23 19 16 13 16 20 20 18 18 15 13 9 8 5 5 1 3 6 2 -1 -0 2 -3
44 43 39 44 45 45 43 39 37 33 27 25 27 19 20 20 21 19 32 32 34 24 26 27 26 23 26 22 26 25 24 16 16 13 13 19 18 16 16 15 13 11 10 8 7 8 6 4 4 3 1 2 -3 -2
42 33 44 44 44 43 41 34 33 27 24 26 24 26 20 21 26 28 31 32 34 32 29 31 24 27 29 25 25 28 23 15 14 18 18 18 17 14 14 13 11 11 10 10 7 7 5 5 5 11 7 4 5 4
32 39 44 43 41 38 35 34 30 28 23 18 16 17 20 26 27 29 29 32 32 32 28 27 28 24 26 22 15 14 20 18 15 14 13 13 15 14 15 12 11 12 10 8 9 5 6 5 9 7 7 6 8 7
36 40 43 42 38 35 31 30 30 20 18 17 18 20 25 27 26 27 29 31 32 32 28 25 19 17 18 17 15 8 14 15 16 10 6 5 13 13 11 11 10 7 10 7 9 11 9 11 12 11 11 13 9 12
43 43 42 42 42 34 29 27 30 26 19 21 23 25 25 25 25 20 28 29 30 31 28 22 20 17 18 16 16 13 16 18 17 14 7 4 5 12 12 14 14 11 11 7 9 11 11 11 13 13 13 14 10 9
39 40 41 39 36 35 31 27 27 26 26 23 27 28 24 26 22 19 26 31 29 22 18 16 14 20 11 12 17 20 20 22 19 18 16 12 9 16 13 13 13 14 13 11 11 8 10 12 12 14 7 1 -0 2
34 40 34 36 31 32 30 30 27 28 26 27 25 27 20 16 15 22 27 26 24 20 18 19 21 16 16 16 16 20 21 20 18 18 16 17 14 14 14 13 14 12 12 10 13 11 13 15 13 11 4 -2 0 1
38 35 31 30 26 26 22 32 26 27 21 20 26 20 17 15 20 27 15 21 19 16 16 17 16 18 17 11 19 18 19 21 18 18 18 18 18 15 15 13 15 12 12 13 17 13 11 10 8 5 0 -1 -1 -6
38 29 25 24 23 19 25 22 29 26 22 21 21 14 19 18 24 15 15 15 16 16 18 15 22 19 20 22 18 19 20 21 18 18 19 18 16 16 18 17 17 18 19 17 17 13 11 6 4 4 -2 -4 -7 -5
22 20 22 16 26 21 16 16 21 22 10 14 17 11 17 20 12 10 13 13 21 21 15 19 20 22 19 14 16 17 22 23 19 17 18 22 19 18 17 18 18 19 19 14 5 6 -1 -5 -5 -1 -2 -3 4 -2
17 21 24 23 24 21 20 14 14 12 12 11 12 14 13 9 10 10 15 16 19 24 24 24 20 18 18 20 20 20 20 22 23 20 19 23 22 20 17 16 13 14 16 17 11 7 5 0 -1 1 -3 -2 -2 -5
19 22 25 29 28 28 23 21 25 19 13 10 9 9 9 7 6 12 18 19 20 17 23 28 25 22 21 20 21 20 22 23 21 20 20 20 19 22 21 17 15 17 17 15 15 12 12 9 5 5 4 -5 -2 2
19 21 15 22 24 24 21 18 16 15 12 19 15 8 7 7 7 12 14 17 22 21 21 23 24 24 22 21 18 17 15 15 15 15 16 14 10 7 9 11 12 18 16 16 16 15 15 14 11 8 6 7 7 -0
16 21 21 13 18 18 14 15 14 17 18 17 9 5 8 14 13 13 15 18 21 20 18 18 16 17 16 15 15 15 18 18 14 8 5 5 5 9 5 5 9 11 11 10 15 14 15 14 13 11 9 9 7 0
18 23 17 14 15 12 7 14 11 9 14 15 17 14 12 11 13 15 14 14 18 13 13 14 14 14 15 15 10 9 6 6 8 15 15 12 15 9 7 8 8 8 10 11 11 11 13 9 11 7 7 5 3 3
22 21 17 15 12 10 9 6 5 7 8 9 7 7 7 8 11 13 11 11 14 19 18 13 12 11 15 15 14 14 13 8 4 7 8 8 11 11 9 7 7 7 8 9 8 6 3 2 4 7 9 7 6 6
13 12 13 8 9 8 8 8 8 6 3 4 4 0 7 5 -1 6 10 10 10 9 9 14 17 15 11 13 13 15 12 12 11 10 12 8 5 6 9 9 9 8 6 5 3 2 3 4 4 5 7 7 7 5
7 6 3 -1 2 2 2 5 7 7 7 3 3 2 -2 -5 -4 0 6 10 8 10 11 11 10 10 11 13 13 10 8 8 8 12 8 8 6 9 9 10 11 10 8 6 4 4 4 4 3 4 6 6 4 3

GFSWCAN_sfc_temp_126.txt.gz
Temp
48 48 48 48 47 47 48 49 48 48 48 48 48 48 48 49 48 43 39 39 36 30 34 38 40 35 34 32 28 32 29 29 27 23 25 24 24 28 28 29 30 28 26 25 27 21 16 32 33 26 30 33 33 32
47 47 48 48 47 48 48 48 48 48 48 48 48 48 48 48 48 45 37 41 40 34 34 37 39 40 41 39 33 32 31 31 31 23 22 26 24 24 27 21 32 21 31 28 28 26 32 33 31 33 34 32 32 32
46 47 48 48 48 47 48 48 48 48 48 48 48 48 48 48 48 45 37 37 36 31 33 35 37 41 41 41 41 32 31 36 33 33 28 27 26 24 21 25 28 32 34 29 28 30 31 31 33 34 33 32 32 31
46 48 48 48 47 46 48 48 47 47 47 47 48 48 48 48 48 45 37 37 36 33 28 34 44 40 43 41 40 40 39 40 37 32 29 25 26 31 27 29 27 32 32 28 29 30 31 31 31 31 32 32 32 31
45 47 48 47 47 46 46 46 47 47 47 48 48 48 48 47 46 42 38 37 38 33 27 31 37 41 42 41 39 39 38 36 31 26 23 23 29 28 29 29 21 32 29 23 25 29 30 29 32 33 29 31 30 30
45 46 46 47 46 47 47 47 47 47 47 47 47 48 47 46 44 37 30 38 40 39 29 28 34 37 39 40 42 39 36 35 33 30 23 25 32 28 18 19 29 32 34 34 30 32 30 29 32 30 30 30 30 28
46 46 46 46 46 47 47 47 46 47 47 47 47 47 46 45 39 32 31 39 44 39 28 25 28 36 41 41 34 38 41 36 35 33 28 29 30 31 26 23 29 33 33 33 34 33 28 29 25 30 30 28 29 27
45 46 46 45 46 47 46 46 46 47 47 47 47 46 46 46 42 36 42 45 43 36 33 21 26 32 43 34 33 35 35 37 36 34 32 28 30 28 18 28 32 34 34 32 29 27 25 25 24 25 27 27 25 23
45 45 45 45 46 46 46 46 46 47 47 47 46 45 38 34 31 37 45 45 41 35 26 24 24 23 38 33 33 30 31 29 31 26 28 28 23 24 24 31 30 30 30 29 28 26 25 23 22 22 23 23 22 21
45 44 45 45 45 46 46 46 46 46 46 45 38 31 23 31 44 45 39 34 32 35 32 25 29 29 36 29 30 26 32 28 24 27 29 23 27 24 26 27 27 27 28 31 27 25 24 23 22 22 21 22 21 21
45 45 44 44 44 45 46 46 46 46 43 33 26 26 34 43 35 30 24 25 29 26 29 30 30 30 33 25 25 25 28 30 24 26 25 20 21 23 25 24 24 25 24 24 25 25 27 25 23 22 21 21 21 19
44 44 45 44 44 45 46 46 45 36 34 34 35 37 35 32 27 21 21 27 26 26 28 29 27 29 30 29 26 31 29 29 24 30 25 17 17 23 23 22 22 22 22 21 22 21 22 23 22 20 18 17 16 15
43 43 43 44 45 45 46 45 44 43 40 34 30 25 23 24 15 16 15 22 23 26 26 28 24 27 32 30 30 30 27 24 27 25 18 18 19 23 22 22 21 22 22 20 19 18 17 14 13 13 9 6 5 3
43 42 42 44 45 45 45 45 44 39 31 21 19 17 17 19 21 19 23 25 26 24 23 23 27 26 25 24 19 16 23 29 23 20 16 14 19 21 21 21 19 16 14 13 10 10 9 8 1 -2 -3 -5 -1 -0
44 42 41 42 42 45 45 44 42 33 26 21 21 9 17 19 23 27 24 27 26 32 24 24 25 28 24 24 28 24 19 14 17 16 15 13 20 20 18 18 14 13 9 8 5 6 3 2 6 0 -3 -3 1 -5
44 42 39 42 41 43 43 40 36 32 27 24 27 20 18 20 16 17 27 30 31 29 30 28 25 19 21 21 26 24 24 14 16 15 12 19 18 17 16 15 13 10 9 7 7 7 6 5 5 3 -1 -0 -5 -3
41 32 43 43 41 41 40 35 33 28 24 24 21 27 26 20 19 20 28 32 33 31 30 30 21 22 27 25 23 28 17 17 13 11 15 18 18 15 13 12 10 10 9 9 7 7 4 5 6 10 7 2 3 2
31 39 44 42 39 37 35 34 29 27 22 18 16 13 16 26 28 28 29 31 31 32 31 27 28 23 25 21 15 18 12 12 15 11 10 11 13 13 15 11 11 11 10 9 9 6 5 5 9 5 6 5 6 6
36 39 43 43 38 35 30 31 31 20 17 16 14 20 25 26 26 24 24 29 31 32 31 25 19 18 18 18 17 8 7 13 14 9 5 3 12 13 10 10 10 7 10 7 9 10 10 10 10 10 10 11 9 9
42 42 43 42 41 33 29 28 30 26 19 20 20 23 22 23 23 21 26 26 31 31 28 22 20 21 20 18 17 15 13 16 15 12 6 4 4 11 11 13 13 11 11 8 8 10 10 10 12 12 12 12 10 8
39 38 40 37 35 34 30 27 26 26 24 20 24 25 19 25 22 19 21 28 28 27 25 21 14 12 15 11 15 17 19 21 19 18 17 11 7 14 11 12 12 14 12 10 11 8 9 10 11 13 4 1 -1 1
36 39 33 34 30 32 31 29 26 26 24 24 24 26 19 15 17 23 24 23 23 22 19 15 15 22 15 15 13 17 17 19 18 17 15 16 13 12 13 12 14 12 12 11 13 10 11 13 11 10 3 -4 -1 -0
38 34 31 30 24 25 23 32 24 26 21 21 26 22 20 19 21 26 19 21 19 15 14 15 14 16 14 10 17 16 16 20 17 16 16 17 16 14 15 13 15 12 13 13 16 13 10 9 9 7 0 -2 -2 -6
37 25 23 21 21 11 25 22 28 26 24 22 20 18 18 20 23 17 16 15 12 16 17 14 18 17 18 20 15 15 15 19 17 15 17 17 15 15 17 17 18 18 19 17 17 13 9 7 6 6 -1 -7 -9 -6
20 17 21 14 25 20 20 16 21 23 14 18 16 11 19 19 11 10 11 11 22 24 23 20 19 19 15 11 12 14 19 21 18 16 14 20 17 16 16 17 17 18 18 11 5 4 -0 1 5 3 0 -1 3 -1
9 13 19 18 19 20 20 13 13 14 11 13 16 12 12 9 12 11 14 16 17 22 23 23 23 21 17 18 17 17 19 21 21 16 16 21 19 18 16 15 13 12 15 14 11 9 8 7 6 7 5 5 3 3
13 15 25 29 28 28 22 22 24 18 14 11 8 7 9 7 5 11 17 17 18 21 22 21 25 25 22 19 19 18 20 21 18 18 19 20 19 21 20 17 15 17 16 15 15 14 13 10 8 9 9 6 5 7
19 21 18 19 23 24 22 21 21 20 19 19 16 10 7 9 7 9 13 15 17 20 22 21 22 22 21 19 18 17 14 13 13 15 15 13 9 6 9 10 11 18 16 16 15 12 12 12 10 9 10 10 10 7
20 23 21 14 16 15 15 18 17 18 18 19 14 7 8 12 8 9 11 13 15 19 15 15 13 14 15 15 15 15 16 18 13 8 6 5 5 10 4 4 10 11 11 10 13 12 12 11 10 9 9 9 9 6
15 20 13 9 13 12 11 14 11 11 16 16 17 15 13 9 9 12 10 10 10 10 14 12 11 9 9 11 10 12 12 12 12 15 15 12 13 5 6 5 5 1 5 9 8 10 13 6 7 1 1 0 1 2
23 21 18 16 14 10 11 10 9 11 11 10 9 9 9 9 9 10 9 8 10 10 9 9 15 16 14 14 11 9 11 10 9 10 9 7 6 8 6 3 1 5 6 7 6 4 4 -0 -0 1 4 4 4 5
18 17 16 14 13 14 14 12 10 8 8 8 6 5 5 4 0 4 7 6 7 7 8 9 7 5 9 17 18 18 16 13 12 12 11 8 5 4 7 6 3 4 5 5 4 0 1 2 2 3 4 5 4 5
11 11 7 8 9 10 12 12 10 8 6 4 1 -1 -5 -4 -5 -1 4 6 3 5 6 7 10 10 9 9 8 9 7 4 8 12 11 11 8 9 7 7 5 5 5 4 3 4 4 3 1 1 2 3 3 5

GFSWCAN_sfc_temp_129.txt.gz
Temp
47 48 48 48 47 47 48 49 49 48 48 48 48 48 49 49 48 44 40 41 40 33 37 40 42 37 37 36 33 35 35 35 33 29 30 29 30 32 31 32 31 29 28 27 28 24 21 34 36 28 29 34 34 32
47 48 48 47 47 47 48 48 48 48 48 48 48 48 48 49 49 46 38 41 41 36 36 39 42 42 43 43 36 35 35 34 35 30 30 32 30 31 31 26 36 28 33 29 30 28 32 34 32 34 35 33 32 32
47 47 47 47 46 47 47 48 48 48 48 48 48 48 48 49 48 45 39 38 38 35 37 39 39 43 44 44 45 36 35 38 36 37 33 32 29 32 28 30 31 34 36 31 30 31 31 32 34 35 35 33 34 33
47 47 47 47 47 47 47 47 47 47 47 47 48 48 48 48 47 45 38 38 38 36 33 36 46 41 44 45 44 43 41 40 38 37 35 33 32 36 32 34 33 35 35 30 30 31 31 32 32 33 34 34 33 32
46 46 47 47 46 46 47 47 47 47 47 47 47 48 48 48 46 42 39 39 40 38 32 35 40 42 44 44 42 43 41 38 37 35 33 32 35 35 34 34 30 35 31 29 28 31 32 30 32 33 32 31 32 31
46 46 47 46 46 46 46 46 47 47 47 47 47 47 47 46 44 39 33 40 42 40 35 31 37 39 41 42 42 41 40 38 38 37 33 33 36 35 30 29 32 34 36 36 31 33 32 31 31 32 31 29 30 29
45 47 47 46 46 46 45 46 47 47 47 47 47 47 47 46 40 35 34 39 44 41 33 31 32 38 41 41 37 40 42 39 38 35 35 35 35 36 29 26 33 34 35 35 35 33 29 30 28 31 30 29 29 28
45 47 47 46 46 46 46 46 47 46 47 47 46 47 46 46 43 38 43 45 43 37 35 28 30 36 43 35 34 37 38 39 37 35 35 34 35 33 27 31 33 34 34 31 30 31 29 28 28 28 29 29 26 24
45 46 46 46 46 46 46 46 46 47 46 46 46 45 40 35 33 38 46 44 40 35 29 28 28 27 39 34 35 35 36 32 34 31 33 34 30 27 30 32 33 34 33 29 29 29 29 26 25 25 26 26 24 23
45 46 45 45 46 46 46 46 46 46 46 45 38 32 26 33 43 44 38 33 33 35 33 29 32 31 35 32 30 32 34 30 25 31 34 30 31 26 29 32 31 32 33 32 27 25 26 24 24 24 23 24 24 23
45 45 45 45 46 46 46 46 46 46 43 34 28 29 36 43 36 31 26 27 30 27 30 31 33 31 35 30 28 31 30 31 24 29 29 27 27 26 28 27 28 28 28 29 30 31 31 29 26 24 23 22 22 21
45 45 45 45 46 46 46 46 45 37 35 35 37 38 36 33 28 25 24 28 27 27 29 29 30 33 34 33 31 31 29 30 25 32 28 24 28 26 26 25 25 26 26 25 27 25 26 26 26 23 21 20 19 17
44 44 44 45 46 46 46 45 44 43 40 35 31 26 25 25 17 19 16 23 23 28 30 30 29 32 33 34 31 31 28 26 31 28 26 28 26 25 25 24 24 25 25 23 22 21 20 17 18 18 13 12 12 9
44 44 44 44 45 45 46 45 44 40 33 25 23 19 17 17 20 22 26 27 28 29 28 28 28 30 30 28 27 25 28 32 22 19 23 27 24 23 24 24 23 20 18 17 15 14 12 11 8 7 8 6 8 10
44 43 43 44 44 45 44 44 42 33 28 23 24 13 19 21 24 28 27 28 29 31 30 30 30 31 27 26 29 26 22 19 22 23 27 24 23 22 21 21 19 16 13 12 12 11 8 8 10 8 6 8 9 6
42 41 39 44 45 45 43 40 35 32 28 25 26 20 21 23 21 23 27 30 32 32 31 32 27 24 26 26 27 25 22 20 25 27 25 23 21 21 20 19 17 15 14 12 12 12 11 10 11 12 8 9 6 9
40 34 41 42 43 44 43 35 31 28 24 25 16 26 27 24 22 24 28 31 34 31 30 31 24 24 28 27 25 28 23 26 27 23 22 23 21 20 18 16 13 13 12 13 12 13 12 12 11 13 13 11 12 12
34 39 40 39 38 38 35 32 29 28 23 19 17 16 25 20 25 27 28 31 31 32 32 29 31 25 22 22 23 27 24 19 19 20 20 20 19 18 18 16 14 14 14 12 13 11 11 10 13 15 15 14 13 13
38 38 40 40 38 34 31 31 31 21 18 19 19 23 27 25 28 27 27 29 32 33 31 28 24 24 25 26 27 24 19 21 21 17 16 12 17 17 15 14 13 14 13 13 14 15 15 16 19 19 19 18 18 18
43 42 42 42 41 31 29 29 31 27 22 23 23 24 24 24 27 27 28 28 30 31 28 26 25 27 27 28 26 27 23 20 19 17 15 14 15 14 15 16 17 16 15 14 16 15 17 17 18 19 20 19 19 18
40 38 40 38 33 33 29 28 27 27 25 23 25 27 22 25 25 24 24 29 27 26 25 27 26 24 18 19 21 22 21 23 22 25 21 16 13 18 16 17 16 18 17 16 16 16 15 19 21 21 19 19 18 18
34 39 32 35 29 32 30 30 28 27 26 26 26 27 21 17 20 23 26 23 24 24 23 24 24 23 23 21 20 22 21 22 21 19 17 17 15 15 15 16 17 16 17 17 18 18 18 20 20 20 19 16 11 15
37 34 30 30 22 23 25 31 24 26 20 20 26 22 20 19 23 28 23 24 21 20 20 20 19 18 19 16 19 19 19 22 21 20 19 21 21 20 19 17 19 17 17 17 20 20 19 17 16 17 16 12 13 13
36 24 17 19 21 13 26 22 28 26 23 21 21 18 19 21 24 20 20 18 19 24 25 23 22 21 22 22 20 20 21 22 20 19 20 20 18 18 20 19 20 20 22 22 20 20 19 17 15 15 13 12 12 13
20 17 20 16 25 21 20 14 18 22 17 19 19 18 21 22 17 15 16 18 21 24 23 24 25 24 22 19 18 20 20 22 21 19 19 22 20 18 18 20 20 21 22 19 17 17 16 14 14 14 12 13 13 11
13 13 19 15 12 19 19 14 18 18 15 15 18 17 18 17 17 15 17 17 18 20 20 20 20 23 24 23 21 20 21 23 23 21 20 22 21 19 18 16 16 18 21 22 20 18 17 14 13 13 13 11 9 13
11 12 24 29 28 28 23 24 24 20 17 15 15 13 15 11 10 15 17 17 17 18 19 21 22 22 25 24 23 22 22 23 22 22 22 23 23 24 22 19 18 22 21 20 20 19 18 15 14 14 14 15 14 12
20 21 17 20 23 25 23 22 21 20 21 21 19 17 14 13 13 11 14 15 14 16 18 22 22 21 22 22 21 19 17 16 17 18 19 18 16 18 18 20 20 19 21 21 22 20 19 18 17 15 14 14 14 13
19 22 21 15 18 19 18 19 18 19 19 21 20 14 11 10 9 8 11 11 13 14 15 15 17 17 18 18 18 18 19 20 20 17 17 17 17 20 16 17 19 19 19 18 14 17 18 17 16 15 15 15 16 14
15 20 14 10 12 13 12 15 14 14 18 19 18 16 12 9 10 11 9 9 8 8 9 11 15 15 14 15 16 17 17 18 19 21 19 18 20 20 15 16 16 15 15 16 16 17 17 14 13 11 11 10 11 10
22 20 18 14 11 11 13 14 13 13 14 14 13 12 9 8 9 9 8 7 9 9 9 8 8 9 8 11 15 16 18 18 18 18 18 18 17 16 14 13 13 13 14 15 15 15 13 12 14 13 11 10 10 10
17 17 16 12 13 13 12 12 12 12 10 11 9 9 8 7 2 4 7 6 6 5 6 6 6 8 10 10 13 13 13 14 15 14 15 16 15 13 12 12 12 13 13 13 13 12 13 13 11 11 11 10 10 10
14 14 13 13 13 14 13 14 13 11 11 9 6 5 2 3 -0 4 7 6 4 3 3 5 6 9 10 10 10 11 10 10 9 11 8 7 5 9 11 11 12 13 12 12 11 11 10 10 10 10 10 10 9 9